Regional Weather Roundup
Issued by NWS

Home | Current Version | Previous Version | Graphics & Text | Print | Product List | Glossary On
Versions: 1 2 3 4 5 6 7 8 9 10 11 12 13 14 15 16 17 18 19 20 21 22 23 24 25 26 27 28 29 30 31 32 33 34 35 36 37 38 39 40 41 42 43 44 45 46 47 48 49 50
000
ASUS43 KLMK 212210
RWRKY
KENTUCKY REGIONAL WEATHER ROUNDUP
NATIONAL WEATHER SERVICE LOUISVILLE KY
500 PM EST TUE FEB 21 2017

NOTE "FAIR" INDICATES FEW OR NO CLOUDS BELOW 12,000 FEET
WITH NO SIGNIFICANT WEATHER AND/OR OBSTRUCTIONS TO VISIBILITY.

KYZ001>023-026-027-061>063-070>075-212300-
WESTERN AND SOUTH CENTRAL KENTUCKY

CITY           SKY/WX    TMP DP  RH WIND       PRES   REMARKS
PADUCAH        CLOUDY    63  56  78 CALM      29.89S
HENDERSON      CLOUDY    63  54  72 SE7       29.89F
OWENSBORO      HAZE      62  57  83 E5        29.92F VSB 3/4
HOPKINSVILLE   CLOUDY    69  56  62 CALM      29.88S HAZE
BOWLING GREEN  CLOUDY    69  52  54 SE9       29.93S
GLASGOW        CLOUDY    66  51  58 SE9       29.95S
$$

KYZ024-025-028>034-038-045-046-053-212300-
NORTH CENTRAL KENTUCKY

CITY           SKY/WX    TMP DP  RH WIND       PRES   REMARKS
LOUISVILLE/SDF CLOUDY    70  48  45 S6        29.93S
LOUISVILLE/LOU CLOUDY    71  50  47 S3        29.94S
FORT KNOX      CLOUDY    68  51  55 SE6       29.92S
$$

KYZ035>037-039>044-047>052-055>060-089>105-212300-
NORTHEAST KENTUCKY

CITY           SKY/WX    TMP DP  RH WIND       PRES   REMARKS
LEXINGTON      CLOUDY    68  46  45 S6        29.96F
COVINGTON      LGT RAIN  59  56  89 SW5       29.97R FOG
FRANKFORT      CLOUDY    69  48  47 SE5       29.94S
$$

KYZ054-064>069-076>088-106>120-212300-
SOUTHEAST KENTUCKY

CITY           SKY/WX    TMP DP  RH WIND       PRES   REMARKS
JACKSON        CLOUDY    70  43  37 CALM      29.99S
LONDON         CLOUDY    68  43  40 S5        29.98S
SOMERSET       LGT RAIN  66  50  55 CALM      29.98S
MIDDLESBORO    CLOUDY    69  45  41 S3        30.00S
MONTICELLO     LGT RAIN  66  52  60 VRB7      29.99S
$$





USA.gov is the U.S. government's official web portal to all federal, state and local government web resources and services.